Tracking 27188 objects as of 1-Apr-2023
HD Live streaming from Space Station
objects crossing your sky now

STARLINK-2603

Track STARLINK-2603 now!
10-day predictions
STARLINK-2603 is classified as:


NORAD ID: 48375
Int'l Code: 2021-038Y
Perigee: 553.4 km
Apogee: 555.4 km
Inclination: 53.1 °
Period: 95.6 minutes
Semi major axis: 6925 km
RCS: Unknown
Launch date: May 4, 2021
Source: United States (US)
Launch site: AIR FORCE EASTERN TEST RANGE (AFETR)
Your satellite tracking list
Your tracking list is empty




NASA's NSSDC Master Catalog

Two Line Element Set (TLE):
1 48375U 21038Y   23091.38661698 -.00000010  00000-0  18195-4 0  9993
2 48375  53.0538 129.8593 0001435  90.9095 269.2059 15.06393194105982
Source of the keplerian elements: AFSPC